Temperature
12 12 13 13 11 10 10 11 13 15 16 18 19 19 19 19 20 20 20 20 20 20 19 18 17 17 18 18 17 17 17 17 17 17 17 17 17 17 17 17 17 17 16 16 16 16 16 16 16
12 12 12 12 10 10 10 11 13 14 16 18 19 19 19 19 19 19 20 20 19 19 18 18 17 17 17 17 17 17 17 16 16 16 16 16 16 16 16 16 17 17 16 16 16 16 16 16 16
11 12 12 9 9 9 11 13 13 15 17 17 18 19 19 19 19 19 20 20 19 19 18 18 17 17 17 17 17 17 17 16 16 16 16 16 16 16 16 16 17 17 16 16 17 17 16 16 16
11 11 11 9 9 10 11 12 13 14 16 17 17 18 18 18 18 19 19 19 19 18 18 18 17 17 17 17 17 16 16 16 16 16 16 16 16 16 16 16 16 17 17 17 17 17 16 16 16
11 11 8 8 9 10 11 13 14 13 14 16 17 16 17 18 18 18 18 18 18 18 18 17 17 17 17 17 16 16 16 16 16 16 16 16 16 16 16 16 16 17 17 17 17 16 16 16 16
10 8 7 8 9 10 11 14 14 13 14 15 16 16 17 17 17 17 18 18 18 18 18 17 17 17 16 16 16 16 16 16 16 16 15 15 16 16 16 16 16 17 17 17 17 16 16 16 16
9 7 7 8 9 10 12 14 13 12 13 15 16 15 16 16 16 17 17 17 17 17 17 17 16 16 16 16 16 16 16 16 16 15 15 15 15 16 16 16 16 17 17 17 17 16 16 16 16
10 7 8 8 9 10 12 13 13 13 13 14 15 15 15 15 16 16 16 16 16 16 16 16 16 16 16 16 16 16 16 15 15 15 15 15 15 16 16 16 16 17 17 17 17 16 16 16 16
9 7 6 8 9 10 11 11 12 12 13 13 14 14 14 15 15 15 16 15 15 16 16 16 16 16 16 15 15 15 15 15 15 15 15 15 15 15 15 16 16 16 17 17 17 16 16 16 16
8 6 7 9 10 10 10 10 11 11 11 12 13 13 14 14 14 15 15 15 15 15 15 15 15 15 15 15 15 15 15 15 15 15 15 15 15 15 15 16 16 16 16 17 16 16 16 16 16
7 6 8 9 10 10 10 10 11 10 10 11 12 12 13 13 13 14 14 14 15 15 15 15 15 15 15 15 15 15 15 15 15 15 15 15 15 15 15 15 16 16 16 16 16 16 16 16 15
7 7 8 9 10 10 9 10 10 10 10 11 11 11 12 12 13 13 13 14 14 14 15 15 15 14 14 14 14 14 14 15 15 15 14 15 15 15 15 15 16 16 16 16 16 16 16 16 15
7 7 8 9 9 9 9 9 9 10 11 11 11 11 11 12 12 13 13 13 14 14 14 14 14 14 14 14 14 14 14 15 15 14 14 14 15 15 15 15 16 16 16 16 16 16 16 15 15
7 7 7 8 8 9 8 9 9 9 10 10 11 11 11 12 12 13 13 13 13 14 14 14 14 14 14 14 14 14 14 14 14 14 14 14 14 15 15 15 16 16 16 16 16 16 16 15 15
7 6 6 7 8 8 8 7 8 10 10 10 10 11 11 11 12 12 13 13 13 13 14 14 14 14 14 14 13 13 14 14 14 14 14 14 14 14 15 15 15 15 16 16 15 15 15 15 15
6 6 5 7 8 8 7 6 8 10 10 10 10 10 11 11 12 12 12 13 13 13 13 13 13 13 13 13 13 13 13 14 14 14 14 14 14 14 14 14 15 15 15 15 15 15 15 15 15
5 4 5 6 8 8 7 6 8 9 9 9 9 10 10 11 11 12 12 12 13 13 13 13 13 13 13 13 13 13 13 13 13 13 13 13 13 14 14 14 14 15 15 15 15 15 15 15 14
5 5 5 6 7 7 6 6 8 9 9 9 9 10 10 10 11 12 12 12 12 12 12 12 13 13 13 13 12 12 12 13 13 13 13 13 13 13 14 14 14 14 14 14 14 14 14 14 14
5 5 5 6 7 7 6 7 7 8 8 8 8 9 9 10 11 11 12 12 12 12 12 12 12 12 12 12 12 12 12 12 12 13 13 13 13 13 13 13 14 14 14 14 14 14 14 14 14
5 5 5 6 7 7 6 6 7 7 7 8 8 8 9 9 10 11 11 11 11 12 12 12 12 12 12 12 12 12 12 12 12 12 12 13 13 13 13 13 13 14 14 14 14 14 14 13 13
6 5 5 6 6 7 6 6 7 7 8 8 8 8 8 9 9 10 11 11 11 11 11 11 12 12 12 12 12 12 12 12 12 12 12 12 12 13 13 13 13 13 13 14 14 14 14 13 13
5 6 7 7 6 6 6 6 6 7 7 7 7 8 8 8 9 9 10 10 11 11 11 11 11 11 11 12 11 11 11 11 12 12 12 12 12 12 12 12 12 13 13 13 14 14 14 14 13
6 7 7 7 6 6 6 5 6 6 7 7 7 7 7 8 8 9 9 10 10 10 10 11 11 11 11 11 11 11 11 11 11 11 11 12 12 12 12 12 12 12 13 13 13 13 13 13 13
7 6 6 6 5 5 6 6 6 6 6 6 6 6 6 7 7 8 9 9 9 10 10 10 10 10 11 11 11 11 11 11 11 11 11 11 11 12 12 12 12 12 12 13 13 13 13 13 13
6 5 5 5 5 6 6 6 6 6 6 6 6 5 6 6 7 7 8 8 9 9 10 10 10 10 10 10 10 10 10 10 11 11 11 11 11 11 11 11 12 12 12 12 12 12 12 12 12
6 6 5 6 6 6 6 6 6 6 6 6 5 5 5 5 6 6 7 7 8 9 9 9 9 10 10 10 10 10 10 10 10 11 11 11 11 11 11 11 11 11 12 12 12 11 12 12 12
7 6 6 6 6 6 6 6 6 7 6 6 5 5 5 5 5 5 6 7 7 8 8 8 9 9 9 9 9 9 10 10 10 10 10 11 11 11 11 11 11 11 11 11 11 11 11 11 11
7 7 6 6 6 7 7 6 6 6 5 5 5 4 4 4 5 5 5 6 7 7 8 8 8 9 9 9 9 9 9 9 10 10 10 10 10 10 10 10 11 11 11 11 11 11 11 11 11
7 7 6 6 6 6 6 6 6 5 5 5 4 4 4 4 4 4 5 5 6 6 7 8 8 8 8 8 8 9 9 9 9 9 9 10 10 10 10 10 10 10 10 10 10 10 10 10 10
7 7 6 6 6 5 5 6 6 5 5 4 4 4 3 3 4 4 4 5 5 6 6 7 7 7 8 8 8 8 8 8 9 9 9 9 9 9 9 10 10 10 10 10 10 10 10 10 10
Wind_Speed
8 8 2 4 4 1 5 7 5 4 4 5 3 5 5 6 5 4 0 7 12 16 18 21 21 20 19 19 18 18 18 18 18 18 18 19 19 19 19 19 19 19 19 19 19 18 18 18 17
5 3 4 4 4 5 6 7 9 11 8 7 8 5 4 4 2 2 3 7 15 16 17 19 20 19 19 18 18 18 18 18 18 18 19 19 20 20 20 19 19 19 19 19 18 18 17 17 16
5 2 4 4 5 7 7 5 8 9 9 7 6 5 3 3 1 3 4 10 14 14 16 18 21 19 18 18 17 18 18 18 18 18 19 20 20 20 20 20 19 19 19 19 18 17 16 15 14
3 4 4 2 9 6 6 6 4 7 8 5 3 6 4 3 2 2 5 12 14 12 14 19 21 20 19 18 17 18 18 18 18 18 19 20 20 20 21 20 20 20 19 18 18 16 15 13 12
4 4 2 4 7 5 5 8 9 8 7 7 6 5 5 6 3 4 8 11 13 12 12 17 21 20 19 18 17 17 18 18 19 19 19 20 20 21 21 21 21 20 19 18 17 16 14 12 11
4 4 3 6 7 5 6 7 8 8 7 7 5 4 4 4 4 2 6 8 10 11 11 15 19 19 19 18 18 17 17 18 19 19 19 20 21 22 22 22 21 20 19 18 17 16 14 12 10
4 4 4 4 4 5 6 4 4 6 8 7 4 4 3 4 4 2 3 5 5 7 8 9 14 16 17 17 17 17 17 18 18 19 20 20 20 22 22 22 21 20 19 18 17 15 14 12 9
4 3 3 4 4 5 3 4 2 4 6 6 3 2 3 5 5 2 4 4 5 5 6 6 10 12 12 14 16 17 17 17 17 18 19 19 21 22 22 22 21 20 19 18 17 15 14 11 9
3 2 5 5 4 4 4 5 6 5 4 5 2 1 4 6 5 3 2 2 3 4 5 6 6 8 10 11 13 15 16 17 17 17 19 19 17 18 19 20 21 20 19 18 17 15 13 11 8
3 4 7 5 3 4 6 6 7 6 7 6 6 5 5 6 5 4 2 2 4 5 5 5 6 6 7 9 9 10 11 13 13 14 16 15 15 16 17 20 21 20 19 18 16 15 13 10 7
5 6 5 6 7 6 7 8 5 6 9 7 7 9 8 7 6 5 4 4 5 5 5 5 5 5 6 5 6 5 7 9 11 14 14 14 14 13 14 15 16 16 16 14 14 12 10 9 7
4 6 7 6 6 6 7 7 8 10 12 9 9 9 8 8 7 7 6 5 4 5 6 6 6 5 5 6 6 6 5 6 7 12 15 13 9 8 10 10 12 13 12 11 10 9 9 8 8
5 5 7 8 9 10 10 11 11 13 13 11 11 10 10 10 9 8 7 6 5 6 6 7 8 8 7 7 6 7 7 7 9 12 15 15 9 9 8 9 11 11 12 11 9 8 7 6 7
4 5 8 9 10 8 11 14 10 13 10 11 12 12 11 11 11 9 8 7 7 7 7 7 8 8 8 8 7 7 7 8 10 11 14 16 13 10 9 9 9 10 12 12 10 8 6 5 5
4 6 10 8 8 6 6 12 11 14 11 12 13 13 12 12 11 11 10 9 8 7 7 7 8 8 8 8 9 7 7 8 8 10 15 16 15 13 10 10 9 10 13 12 9 7 6 4 4
3 3 5 6 4 4 3 12 10 9 8 12 12 12 12 12 11 10 9 8 8 7 7 8 7 9 9 8 8 6 7 8 7 10 13 16 17 17 11 9 10 12 12 9 7 6 5 5 5
2 3 6 7 4 2 3 10 11 8 9 12 12 10 10 10 10 9 8 8 8 7 7 7 8 8 8 8 7 7 7 7 7 9 10 14 17 18 12 9 9 12 9 7 8 6 5 5 5
4 4 5 6 5 5 8 14 15 10 10 12 11 10 10 10 11 9 8 7 7 6 6 6 6 7 8 6 5 5 6 6 6 7 9 12 14 16 13 9 10 10 8 8 8 7 5 5 5
5 6 10 11 8 7 10 15 16 12 10 11 10 9 10 10 10 8 7 7 6 5 6 6 6 6 6 5 6 6 7 6 6 6 8 11 11 13 10 9 10 10 10 10 9 6 6 4 4
8 9 10 10 5 5 9 14 13 10 8 8 8 7 8 8 6 5 4 4 6 6 6 6 7 6 6 6 5 4 4 5 5 6 8 10 11 11 10 10 10 10 9 9 9 6 5 4 5
8 8 7 8 8 5 6 8 6 6 5 6 5 4 4 5 5 4 2 3 4 5 5 5 6 6 7 7 5 4 3 3 5 6 7 9 10 10 9 9 9 9 9 10 10 9 9 6 5
6 6 7 7 5 4 2 5 7 8 8 8 8 6 5 5 4 3 1 1 2 3 3 3 4 4 5 7 7 7 6 6 6 7 7 8 9 10 9 9 9 9 8 9 10 9 7 8 7
6 6 6 5 3 4 2 2 6 8 9 11 10 9 6 6 5 4 3 1 1 0 1 1 2 2 3 4 6 6 5 5 4 4 7 8 8 9 9 9 9 9 8 9 10 9 8 7 7
4 4 3 1 0 2 3 1 5 6 9 11 11 11 9 7 7 7 6 5 4 3 3 2 2 2 2 3 3 4 5 4 5 6 7 7 6 6 9 9 9 9 8 9 9 10 10 8 8
1 2 3 4 2 2 2 1 3 7 8 7 9 10 10 10 9 10 10 8 7 6 4 3 3 3 2 2 2 2 4 4 5 6 7 7 6 5 8 8 9 8 8 8 8 9 9 9 9
2 1 1 0 2 3 3 2 3 6 8 8 9 9 10 11 11 11 10 9 8 7 6 5 5 5 4 3 1 0 1 2 2 4 5 6 6 6 7 8 8 8 8 7 7 7 7 7 8
1 1 2 2 1 1 3 3 2 7 9 11 11 12 12 11 11 11 11 11 10 10 9 8 7 7 6 5 4 3 2 0 2 2 2 3 4 4 5 6 7 7 7 7 8 7 7 7 7
3 2 1 0 0 1 2 3 4 7 9 9 10 11 11 11 11 12 11 11 11 11 10 10 9 8 6 5 4 4 4 3 2 2 1 1 2 2 4 5 6 6 7 7 7 6 7 8 7
2 1 0 0 1 1 1 3 3 3 4 6 7 9 9 10 11 11 10 11 11 12 12 11 10 10 10 8 6 6 5 5 4 4 3 1 0 1 3 4 5 5 6 7 7 8 8 9 8
1 1 0 1 1 1 2 2 3 2 3 5 6 7 8 9 9 9 9 10 11 11 12 12 11 11 10 9 8 7 6 6 6 5 4 3 1 0 2 3 4 5 6 6 7 8 9 10 10
Wind_Direction
342 341 48 58 69 156 230 232 237 272 253 223 257 264 244 227 215 233 221 147 142 153 163 168 168 165 163 161 160 160 160 160 159 157 155 152 149 146 144 141 139 137 133 129 125 122 120 118 117
349 359 59 73 136 207 245 231 234 251 255 302 306 278 276 255 232 155 145 162 149 154 161 166 167 166 165 164 164 163 164 166 165 164 161 158 154 152 149 146 143 140 135 131 127 124 123 122 121
342 37 90 115 183 200 222 228 224 261 280 293 291 283 260 248 237 194 198 154 147 154 159 164 167 168 167 166 167 168 169 170 170 168 166 163 161 157 154 150 146 141 135 132 130 128 128 127 124
46 51 65 159 228 225 231 278 309 314 315 306 305 301 295 318 275 220 145 143 147 153 158 165 167 169 169 169 170 172 172 174 174 172 170 168 166 161 155 151 145 141 137 136 135 134 133 131 126
62 84 115 238 239 247 267 291 308 305 297 302 324 295 293 323 345 110 131 145 152 155 158 166 170 171 171 172 173 175 176 177 178 176 175 172 167 162 155 150 146 144 143 142 140 140 139 136 129
64 84 165 236 244 264 268 273 290 289 288 301 308 292 282 324 12 95 131 147 158 158 159 166 173 173 174 175 175 177 180 181 180 179 176 173 168 161 156 152 150 149 148 147 145 146 146 142 136
114 126 209 233 256 267 265 278 268 281 293 288 282 275 286 334 338 8 105 124 140 152 158 164 171 174 175 177 179 181 182 183 182 180 176 172 167 161 158 155 154 153 153 151 151 152 152 150 144
133 133 228 236 237 255 282 316 313 309 284 292 315 299 297 308 323 32 80 106 132 146 160 170 171 172 175 179 182 181 182 182 180 179 174 169 165 162 160 157 157 156 156 156 156 157 158 157 154
101 143 219 222 223 259 331 337 321 303 297 311 322 320 296 317 357 22 59 94 141 154 166 172 174 171 171 176 183 180 180 179 176 175 170 165 163 160 160 159 158 158 159 159 161 162 162 162 164
129 199 224 226 241 280 309 307 309 321 315 306 308 314 328 341 349 351 302 201 178 177 181 172 173 175 167 176 174 173 174 172 169 167 165 162 159 161 161 160 159 160 161 162 165 166 165 165 172
182 213 234 254 263 275 288 290 285 282 279 271 286 302 315 319 316 309 285 254 217 193 180 172 170 173 170 167 164 166 167 164 163 164 163 160 156 159 158 160 161 161 162 162 166 166 168 174 183
224 240 244 264 278 278 273 276 276 253 257 261 263 273 286 292 288 282 273 262 241 208 191 178 174 174 181 177 175 173 174 169 166 169 167 163 161 160 163 165 166 166 168 166 168 170 177 186 198
248 270 274 280 285 275 274 265 266 264 264 267 268 271 272 272 269 262 253 250 239 223 204 191 184 179 183 183 185 182 185 179 173 173 175 173 169 169 169 171 172 173 173 174 175 179 184 195 206
266 282 291 283 279 274 266 269 262 264 269 272 271 270 270 264 259 256 247 241 233 224 210 195 191 186 188 190 191 190 188 182 178 181 183 179 177 175 174 175 177 180 183 183 183 186 186 194 198
311 313 307 282 264 257 258 273 249 260 266 266 267 268 268 266 256 246 240 234 227 223 211 199 197 190 192 194 196 195 192 183 184 188 188 185 181 180 178 179 183 187 188 186 183 188 186 190 196
323 310 294 285 262 253 219 268 271 266 262 263 264 265 265 265 255 245 237 231 226 213 205 203 200 192 193 193 193 195 197 189 189 190 189 188 185 183 181 183 187 187 186 184 182 183 183 189 188
310 279 273 294 280 278 235 271 288 285 268 268 266 264 265 267 262 249 236 227 218 203 197 198 195 188 191 197 196 193 199 195 190 189 186 189 188 186 183 185 187 183 185 187 188 184 178 179 181
244 259 279 282 297 300 280 277 290 292 272 267 266 266 266 264 260 253 236 222 211 197 188 186 192 190 185 188 193 196 197 197 194 190 190 185 188 187 184 183 184 179 183 188 187 179 177 172 167
257 269 280 281 280 286 278 284 291 295 287 275 269 264 266 268 269 260 233 205 195 195 188 191 194 192 179 176 189 197 197 194 197 199 192 187 187 187 185 185 182 181 186 190 185 174 173 171 150
259 275 282 292 294 286 282 285 286 289 284 278 277 273 273 277 286 271 226 201 191 193 191 196 198 193 186 183 185 195 187 184 196 202 197 194 190 188 189 188 186 186 185 184 182 170 168 171 165
260 252 265 280 306 284 293 306 318 321 320 327 322 295 295 293 290 294 254 218 202 199 198 208 198 197 191 184 174 176 176 174 194 203 201 196 192 190 189 192 189 189 189 191 188 184 177 179 187
265 253 260 278 304 309 333 313 324 334 347 357 351 347 341 335 340 334 296 238 230 226 200 200 197 200 191 182 180 180 186 195 204 203 202 196 190 189 191 196 195 192 194 196 194 191 185 175 187
246 274 269 270 275 303 292 245 313 341 355 354 355 357 357 356 3 5 359 355 4 128 126 148 160 168 171 180 184 177 187 200 197 194 200 200 194 191 193 199 201 202 202 200 198 195 191 186 187
266 305 289 260 99 310 291 187 327 349 343 342 358 5 9 13 21 21 17 27 27 30 46 69 112 113 130 160 175 181 183 187 190 191 203 201 196 194 194 195 200 203 204 205 204 201 199 197 190
351 18 15 11 8 291 312 111 326 344 351 356 7 11 18 24 28 29 27 26 24 30 38 55 74 75 78 121 149 191 194 190 200 199 200 196 194 196 196 194 197 198 200 202 199 198 200 196 192
271 151 129 310 297 310 359 11 326 355 12 22 25 24 26 31 33 32 28 27 27 30 39 50 54 46 39 47 59 147 202 202 212 211 195 191 196 196 194 191 194 196 192 192 195 195 197 196 196
287 255 207 179 274 346 346 342 332 5 18 24 24 26 27 28 30 30 29 29 28 32 35 39 45 38 28 27 24 27 13 295 221 183 183 189 190 190 189 194 194 197 195 195 194 197 194 193 198
232 244 69 96 11 13 350 352 339 347 4 17 24 27 26 26 29 29 29 27 27 29 30 33 35 33 25 27 32 26 16 16 28 55 151 190 179 178 188 197 201 200 199 197 195 194 194 194 199
318 334 331 163 159 128 8 322 339 355 11 26 30 31 32 33 30 28 26 25 25 24 26 29 27 27 23 22 26 24 14 21 35 39 21 19 70 184 205 207 204 204 206 204 203 204 196 198 200
240 291 206 127 352 73 128 300 354 58 50 48 42 34 33 35 31 29 26 25 26 25 25 25 23 24 19 17 23 20 14 20 26 22 16 16 3 261 220 215 211 211 213 210 209 209 203 202 202
Height
1504 1505 1508 1511 1514 1520 1519 1512 1505 1501 1499 1496 1496 1496 1495 1494 1495 1496 1489 1487 1488 1490 1493 1495 1499 1501 1504 1506 1508 1510 1512 1514 1517 1519 1521 1523 1526 1528 1529 1531 1532 1534 1536 1537 1538 1539 1541 1542 1543
1503 1505 1509 1510 1517 1522 1518 1507 1502 1498 1496 1495 1495 1493 1492 1490 1489 1488 1487 1487 1488 1490 1493 1495 1498 1501 1503 1506 1507 1509 1512 1514 1516 1519 1521 1523 1525 1527 1529 1531 1533 1534 1536 1538 1539 1541 1542 1543 1545
1503 1505 1508 1511 1515 1516 1511 1500 1498 1495 1496 1496 1494 1492 1491 1489 1488 1487 1487 1487 1489 1490 1493 1495 1498 1501 1503 1505 1507 1509 1511 1513 1516 1518 1521 1523 1525 1527 1529 1531 1533 1535 1537 1538 1540 1542 1543 1545 1546
1503 1506 1508 1512 1510 1507 1502 1497 1497 1496 1495 1494 1493 1491 1489 1489 1488 1487 1487 1488 1489 1490 1492 1495 1498 1500 1503 1505 1507 1508 1510 1513 1515 1518 1520 1523 1525 1527 1529 1531 1533 1535 1537 1539 1541 1543 1544 1546 1547
1503 1505 1510 1511 1508 1503 1499 1496 1495 1496 1495 1493 1493 1491 1488 1488 1487 1487 1487 1488 1489 1490 1492 1494 1497 1499 1501 1504 1506 1507 1510 1512 1514 1517 1519 1522 1524 1526 1528 1531 1533 1535 1537 1539 1542 1544 1545 1547 1548
1503 1505 1512 1511 1505 1500 1497 1496 1496 1494 1493 1492 1491 1490 1488 1488 1487 1487 1487 1488 1489 1490 1491 1493 1496 1498 1501 1502 1505 1507 1509 1511 1513 1516 1519 1521 1523 1526 1528 1530 1533 1535 1537 1540 1542 1544 1546 1548 1549
1504 1507 1509 1507 1503 1501 1496 1495 1494 1493 1492 1491 1491 1489 1487 1488 1487 1487 1487 1488 1489 1490 1491 1493 1495 1497 1499 1501 1504 1506 1508 1510 1512 1515 1518 1520 1523 1525 1527 1530 1532 1535 1537 1540 1542 1544 1546 1548 1550
1502 1506 1506 1504 1501 1499 1495 1493 1493 1493 1491 1490 1489 1488 1487 1487 1487 1486 1486 1487 1488 1489 1490 1492 1494 1496 1498 1500 1502 1504 1507 1509 1511 1514 1516 1519 1522 1524 1527 1529 1532 1535 1537 1540 1542 1544 1547 1548 1550
1502 1508 1506 1502 1498 1496 1493 1493 1492 1491 1489 1488 1488 1488 1487 1486 1485 1486 1486 1486 1486 1488 1489 1491 1492 1494 1496 1498 1500 1503 1505 1507 1510 1513 1515 1518 1521 1523 1526 1528 1531 1534 1537 1539 1542 1544 1546 1548 1550
1501 1506 1501 1497 1495 1494 1493 1492 1491 1489 1487 1486 1485 1485 1485 1484 1484 1484 1484 1483 1484 1485 1487 1488 1490 1492 1494 1496 1498 1500 1503 1505 1507 1510 1513 1516 1519 1522 1525 1527 1530 1533 1536 1539 1541 1543 1546 1548 1549
1498 1500 1496 1494 1493 1493 1492 1490 1489 1488 1485 1484 1483 1481 1481 1481 1481 1481 1481 1481 1481 1482 1484 1486 1488 1489 1491 1493 1495 1498 1500 1503 1505 1508 1511 1514 1517 1520 1523 1526 1529 1532 1534 1537 1540 1542 1544 1546 1548
1496 1494 1494 1492 1491 1490 1489 1488 1486 1484 1481 1481 1480 1479 1478 1478 1478 1478 1478 1478 1479 1480 1481 1482 1484 1486 1488 1490 1492 1495 1497 1500 1502 1505 1508 1511 1514 1517 1520 1523 1526 1529 1532 1535 1538 1541 1543 1545 1547
1494 1493 1491 1490 1488 1487 1486 1484 1482 1477 1476 1476 1475 1475 1474 1473 1474 1474 1474 1475 1476 1476 1477 1479 1481 1482 1484 1486 1489 1491 1494 1496 1499 1502 1505 1508 1511 1514 1518 1521 1524 1527 1531 1533 1536 1539 1541 1543 1545
1493 1491 1489 1487 1485 1483 1482 1478 1478 1471 1472 1471 1470 1469 1468 1468 1468 1469 1469 1470 1472 1472 1473 1475 1477 1479 1480 1482 1484 1487 1490 1492 1495 1498 1502 1505 1508 1512 1515 1518 1521 1525 1528 1531 1534 1537 1539 1542 1544
1492 1491 1487 1483 1481 1479 1479 1475 1471 1468 1468 1466 1465 1464 1463 1463 1463 1463 1464 1465 1467 1468 1469 1471 1473 1474 1476 1478 1480 1483 1486 1488 1491 1494 1498 1501 1505 1508 1512 1516 1519 1522 1526 1529 1532 1535 1537 1539 1541
1492 1493 1492 1482 1479 1477 1481 1474 1466 1465 1464 1462 1460 1459 1458 1457 1457 1457 1459 1460 1462 1463 1465 1467 1468 1470 1472 1474 1476 1479 1482 1484 1487 1491 1494 1498 1501 1505 1509 1512 1516 1519 1523 1526 1529 1531 1534 1536 1538
1495 1496 1491 1484 1477 1476 1477 1471 1463 1462 1461 1458 1456 1454 1453 1452 1451 1452 1454 1455 1457 1459 1461 1462 1464 1465 1467 1469 1472 1474 1478 1480 1484 1487 1490 1493 1498 1501 1505 1509 1512 1516 1519 1522 1525 1528 1531 1533 1535
1496 1494 1489 1485 1478 1476 1474 1468 1460 1459 1457 1454 1451 1449 1448 1447 1446 1447 1449 1450 1452 1454 1456 1457 1459 1461 1463 1466 1468 1471 1474 1476 1479 1483 1486 1489 1494 1497 1501 1505 1509 1512 1515 1519 1522 1525 1528 1530 1533
1491 1490 1488 1482 1476 1475 1471 1465 1458 1454 1453 1449 1447 1445 1444 1442 1442 1443 1444 1446 1447 1450 1451 1453 1455 1457 1459 1462 1464 1466 1469 1471 1475 1478 1481 1485 1489 1493 1496 1500 1504 1508 1511 1514 1518 1521 1524 1527 1530
1489 1489 1486 1479 1473 1472 1468 1463 1455 1451 1449 1446 1444 1442 1441 1439 1439 1439 1440 1441 1443 1445 1447 1450 1451 1453 1455 1457 1460 1462 1465 1467 1471 1474 1478 1481 1484 1488 1491 1495 1499 1503 1506 1510 1513 1516 1519 1522 1525
1486 1486 1483 1480 1474 1469 1468 1461 1454 1449 1446 1443 1441 1439 1438 1437 1436 1436 1437 1438 1440 1442 1444 1446 1447 1449 1451 1453 1456 1459 1460 1463 1467 1470 1473 1476 1479 1483 1486 1490 1494 1498 1501 1504 1507 1511 1514 1516 1520
1484 1478 1477 1475 1477 1474 1471 1469 1457 1452 1447 1443 1441 1439 1437 1436 1435 1434 1435 1436 1437 1438 1440 1442 1444 1446 1448 1450 1452 1454 1456 1459 1462 1465 1468 1471 1474 1478 1481 1486 1489 1493 1496 1499 1502 1506 1509 1511 1514
1479 1475 1475 1474 1475 1476 1471 1472 1464 1455 1450 1447 1444 1440 1438 1436 1434 1434 1434 1434 1435 1435 1437 1438 1441 1443 1445 1447 1449 1451 1453 1456 1459 1461 1463 1466 1469 1473 1477 1481 1484 1488 1491 1494 1497 1500 1503 1505 1508
1476 1475 1473 1474 1476 1477 1470 1472 1468 1461 1457 1451 1446 1443 1439 1437 1436 1434 1434 1433 1434 1434 1435 1437 1439 1441 1442 1444 1446 1448 1449 1452 1455 1457 1459 1461 1465 1468 1472 1475 1479 1482 1485 1488 1491 1494 1497 1499 1502
1476 1479 1482 1481 1482 1476 1468 1469 1469 1462 1458 1454 1450 1446 1443 1440 1437 1436 1435 1434 1434 1434 1435 1436 1438 1439 1441 1442 1443 1445 1447 1449 1451 1453 1455 1457 1460 1463 1467 1470 1473 1476 1479 1482 1485 1488 1491 1493 1495
1476 1479 1483 1482 1480 1475 1469 1469 1469 1464 1461 1457 1453 1450 1446 1444 1442 1440 1438 1437 1436 1436 1436 1436 1437 1438 1439 1440 1441 1443 1444 1446 1448 1450 1451 1453 1456 1459 1462 1465 1468 1471 1473 1476 1479 1482 1484 1487 1490
1475 1477 1476 1480 1477 1477 1473 1471 1468 1465 1462 1459 1456 1453 1450 1448 1446 1443 1441 1440 1438 1437 1437 1438 1438 1439 1439 1439 1441 1441 1442 1444 1445 1446 1448 1450 1452 1455 1458 1461 1463 1466 1468 1471 1473 1476 1478 1481 1484
1475 1474 1478 1478 1476 1473 1473 1474 1472 1468 1466 1463 1460 1458 1455 1452 1449 1447 1445 1443 1442 1440 1440 1439 1440 1440 1440 1440 1440 1440 1441 1441 1442 1443 1445 1447 1449 1451 1453 1456 1459 1461 1463 1466 1468 1470 1472 1474 1477
1474 1474 1474 1476 1475 1476 1477 1479 1472 1471 1469 1467 1465 1463 1460 1457 1454 1452 1450 1447 1445 1443 1442 1441 1441 1441 1440 1440 1440 1440 1440 1440 1440 1441 1442 1443 1445 1447 1450 1452 1454 1456 1458 1460 1462 1464 1466 1468 1470
1472 1472 1473 1476 1477 1479 1481 1483 1473 1472 1471 1470 1468 1466 1464 1462 1459 1456 1454 1451 1448 1446 1445 1444 1443 1443 1442 1441 1440 1440 1439 1439 1439 1440 1440 1441 1443 1445 1446 1448 1449 1451 1453 1454 1456 1457 1459 1461 1463